"Pseudo-MPEC" for P10Iju0

Created 2018 Jul 15 18:18:13 UT using Find_Orb

Click here for an explanation of pseudo-MPECs

 
 Astrometry: 
     P10Iju0  C2018 07 10X'AstrometryLu*I`qhoGl3F3!S^gKYve6W\Oc;ODg$N7?yY4FKGF51
     P10Iju0  C2018 07 108#GE;4pOd5kUmM*0h3U0l]!1]Zy]+!*wX+CNtm#^)n9PAw:d1ot#F51
     P10Iju0  C2018 07 10-u4D/3'nifk!K4OE\R*eFw;BuU,,%Zcf/Q0k2a1Wc]F8((kfGkd3F51
     P10Iju0 KC2018 07 12_KsEPSb941rs)X\@$tI`?i-1SIxltrk%%SuvF0XN1Q1i3RGaUa[DJ04
     P10Iju0 |C2018 07 12nFRqDxkpDJPQFLx\Vredacted;*ma;6NG7ixJ!lpS=o+ceO3;'3A807
     P10Iju0 |C2018 07 12%i$5sKPibXjyGGRLHxBUk`%WjlLqnPIL?wwI@9'0mNWE%wwZ9hur807
     P10Iju0 |C2018 07 12yee6ENfn_kQ.1E5v8=S7r34om(7Bk-eqCdEcYyH$PVjuEfgcsX[,807
     P10Iju0 |C2018 07 14G*TOuv)f^I7[36yl5GKfX;;W[]@T;U;b9ok5EuU]xm?1]rXs?)9Q807
     P10Iju0 |C2018 07 14xTc3k]A-9\I,+ouQDQ4Bx-S[%1.ynG*FseeVmYGQ!.D7XPC'LtKW807
     P10Iju0 |C2018 07 14bGUJTjOfy(43[VZ:$1o2U-D`PK2$Pifwx6RB@ruH`v5ARp60'+C7807
     P10Iju0 KC2018 07 148AwhmcFw,3O^#[wSV9R55*_K;AV82IYckL8$2%Sp\hPZA,448##C474
     P10Iju0 KC2018 07 14cN8*_Pbc%Sj+kH=JUg-CqAXU,JX0GA8_%Qiu9-Tmw_8yVcTwpQI7474
     P10Iju0 KC2018 07 14o[l!+$eSF$8%/\!IiU@oT?%qM#g$XMaJ(l)HEOL8.5N/^=?NEOCP474

Station data:
(474) Mount John Observatory, Lake Tekapo  (S43.987388 E170.464960)  New
   Zealand.  Observers A. C. Gilmore, P. M. Kilmartin. Measurer P. M.
   Kilmartin. 1.0-m f/7.7 reflector + CCD.
(807) Cerro Tololo Observatory, La Serena  (S30.169136 W70.805900)  Chile.
   1.5-m Ritchey-Chrétien.
(F51) Pan-STARRS 1, Haleakala  (N20.707235 W156.255910)  US/Hawaii.
   Observers N. Primak, A. Schultz, S. Watters, J. Thiel, T. Goggia. Measurer
   PS1 Science Consortium. 1.8-m Ritchey-Chrétien + CCD.
(J04) ESA Optical Ground Station, Tenerife  (N28.300924 W16.511830)  Canary
   Islands (Spain).  Observer D. Abreu. Measurers M. Micheli, D. Koschny, E.
   Schwab, M. Busch, A. Knöfel. 1.0-m f/4.4 reflector + CCD.

Orbital elements:  P10Iju0
   Perihelion 2018 Jan 30.059562 +/- 3.33 TT =  1:25:46 (JD 2458148.559562)
Epoch 2018 Jul 14.0 TT = JDT 2458313.5   Earth MOID: 0.1547   AutoNEOCP
M  53.85948 +/- 1.6                 (J2000 ecliptic)
n   0.32653902 +/- 0.00407          Peri.  204.05880 +/- 0.48
a   2.08855535 +/- 0.0174           Node   350.03280 +/- 0.8
e   0.4570499 +/- 0.0043            Incl.   13.76496 +/- 0.29
P   3.02                   H 19.6   G  0.15   U  9.1  
q 1.13398124 +/- 0.00198    Q 3.04312945 +/- 0.0342
From 13 observations 2018 July 10-14; mean residual 0".12
Residuals in arcseconds: 
180710 F51  .05+  .07+    180712 807  .00   .17-    180714 474  .34+  .07+    
180710 F51  .08+  .02-    180712 807  .07-  .01-    180714 474  .02+  .10-    
180710 F51  .15-  .03-    180714 807  .01-  .03-    180714 474  .29-  .01+    
180712 J04  .10+  .12+    180714 807  .14-  .07+    
180712 807  .04-  .08-    180714 807  .05+  .03+    

Ephemerides (geocentric):
Date (UTC) HH   RA              Dec         delta   r     elong  mag " sig PA
---- -- -- --  -------------   -----------  ------ ------ -----  --- ---- ---
2018 07 15 18  21 35 59.949   -35 53 13.30  .97465 1.9267 150.8 21.8  .45 174
2018 07 15 19  21 35 55.591   -35 53 18.90  .97472 1.9269 150.8 21.8  .47 175
2018 07 15 20  21 35 51.230   -35 53 24.47  .97479 1.9272 150.8 21.8  .49 175
2018 07 15 21  21 35 46.867   -35 53 30.01  .97485 1.9274 150.9 21.8  .50 176
2018 07 15 22  21 35 42.500   -35 53 35.53  .97492 1.9277 150.9 21.8  .52 176
2018 07 15 23  21 35 38.131   -35 53 41.02  .97499 1.9279 151.0 21.8  .54 176
2018 07 16 00  21 35 33.758   -35 53 46.48  .97506 1.9281 151.0 21.8  .56 177
2018 07 16 01  21 35 29.383   -35 53 51.91  .97513 1.9284 151.0 21.8  .57 177
2018 07 16 02  21 35 25.005   -35 53 57.32  .97520 1.9286 151.1 21.8  .59 177
2018 07 16 03  21 35 20.625   -35 54 02.70  .97527 1.9289 151.1 21.8  .61 178
2018 07 16 04  21 35 16.241   -35 54 08.05  .97534 1.9291 151.2 21.8  .63 178
2018 07 16 05  21 35 11.855   -35 54 13.38  .97541 1.9294 151.2 21.8  .65 178
2018 07 16 06  21 35 07.466   -35 54 18.67  .97548 1.9296 151.3 21.8  .67 179
2018 07 16 07  21 35 03.074   -35 54 23.94  .97555 1.9298 151.3 21.8  .69 179
2018 07 16 08  21 34 58.679   -35 54 29.18  .97562 1.9301 151.3 21.8  .71 179
2018 07 16 09  21 34 54.281   -35 54 34.40  .97570 1.9303 151.4 21.8  .73 179
2018 07 16 10  21 34 49.881   -35 54 39.58  .97577 1.9306 151.4 21.8  .75   0
2018 07 16 11  21 34 45.478   -35 54 44.74  .97584 1.9308 151.5 21.8  .77   0
2018 07 16 12  21 34 41.072   -35 54 49.87  .97592 1.9310 151.5 21.8  .79   0
2018 07 16 13  21 34 36.664   -35 54 54.98  .97599 1.9313 151.5 21.8  .81   1
2018 07 16 14  21 34 32.253   -35 55 00.05  .97606 1.9315 151.6 21.8  .83   1
2018 07 16 15  21 34 27.839   -35 55 05.10  .97614 1.9318 151.6 21.8  .85   1
2018 07 16 16  21 34 23.422   -35 55 10.12  .97621 1.9320 151.7 21.8  .88   1
2018 07 16 17  21 34 19.003   -35 55 15.11  .97629 1.9323 151.7 21.8  .90   2
2018 07 16 18  21 34 14.581   -35 55 20.07  .97637 1.9325 151.7 21.8  .92   2
2018 07 16 19  21 34 10.157   -35 55 25.01  .97644 1.9327 151.8 21.8  .94   2
2018 07 16 20  21 34 05.729   -35 55 29.92  .97652 1.9330 151.8 21.8  .97   2
2018 07 16 21  21 34 01.300   -35 55 34.79  .97659 1.9332 151.9 21.8  1.0   2
2018 07 16 22  21 33 56.867   -35 55 39.64  .97667 1.9335 151.9 21.8  1.0   3
2018 07 16 23  21 33 52.432   -35 55 44.47  .97675 1.9337 151.9 21.8  1.0   3
2018 07 17 00  21 33 47.995   -35 55 49.26  .97683 1.9339 152.0 21.8  1.1   3
2018 07 17 01  21 33 43.554   -35 55 54.03  .97691 1.9342 152.0 21.8  1.1   3
2018 07 17 02  21 33 39.111   -35 55 58.76  .97698 1.9344 152.1 21.8  1.1   4
2018 07 17 03  21 33 34.666   -35 56 03.47  .97706 1.9347 152.1 21.8  1.1   4
2018 07 17 04  21 33 30.218   -35 56 08.15  .97714 1.9349 152.1 21.8  1.2   4
2018 07 17 05  21 33 25.768   -35 56 12.80  .97722 1.9352 152.2 21.8  1.2   4
2018 07 17 06  21 33 21.315   -35 56 17.42  .97730 1.9354 152.2 21.8  1.2   4
2018 07 17 07  21 33 16.859   -35 56 22.02  .97738 1.9356 152.3 21.8  1.2   5
2018 07 17 08  21 33 12.401   -35 56 26.58  .97746 1.9359 152.3 21.8  1.3   5
2018 07 17 09  21 33 07.941   -35 56 31.12  .97755 1.9361 152.3 21.8  1.3   5
2018 07 17 10  21 33 03.478   -35 56 35.62  .97763 1.9364 152.4 21.8  1.3   5
2018 07 17 11  21 32 59.012   -35 56 40.10  .97771 1.9366 152.4 21.8  1.3   5
2018 07 17 12  21 32 54.544   -35 56 44.55  .97779 1.9368 152.5 21.8  1.4   6
2018 07 17 13  21 32 50.074   -35 56 48.97  .97788 1.9371 152.5 21.8  1.4   6
2018 07 17 14  21 32 45.601   -35 56 53.36  .97796 1.9373 152.5 21.8  1.4   6
2018 07 17 15  21 32 41.126   -35 56 57.73  .97804 1.9376 152.6 21.8  1.5   6
2018 07 17 16  21 32 36.648   -35 57 02.06  .97813 1.9378 152.6 21.8  1.5   6
2018 07 17 17  21 32 32.168   -35 57 06.36  .97821 1.9380 152.7 21.8  1.5   7